"startDT [UTC]","vpos","CH4 [ppm]","stdev(CH4) [ppm]","CO2 [ppm]","stdev(CO2) [ppm]","H2O [ppm]","stdev(H2O)","p_LGR [torr]","T_LGR [C]","mt1_LGR [us]","mt2_LGR [us]","T_ECpre [C]","T_EC1 [C]","T_EC2 [C]","p_inlet [hPa]","p_in [hPa]","p_out [hPa]","T_inlet [C]","RH_inlet [%]","dwpt_inlet [C]","T_vent [C]","RH_vent [%]","dwpt_vent [C]","flow_vent [l min-1]","flow_inlet [l min-1]","dwpt_sample [C]","T_room [C]"
2012-06-01 00:00:00,0.0,1.9104,0.0010,400.61,0.19,16.8,18.7,138.04,31.70,24.65,36.46,0.95,17.84,-26.56,-61,548,-936,26.6,17.9,0.2,26.5,1.3,-31.4,5.73,2.37,-27.9,30.9
2012-06-01 00:01:00,0.0,1.9100,0.0009,400.54,0.23,19.8,20.0,138.04,31.70,24.65,36.46,0.95,17.87,-26.56,-61,548,-936,26.6,17.9,0.2,26.5,1.3,-31.5,5.73,2.38,-27.8,30.9
2012-06-01 00:02:00,0.0,1.9106,0.0008,400.56,0.19,19.2,22.6,138.04,31.69,24.65,36.47,0.96,17.90,-26.55,-61,548,-936,26.6,18.0,0.3,26.5,1.3,-31.4,5.73,2.38,-27.9,30.9
2012-06-01 00:03:00,0.0,1.9103,0.0008,400.56,0.21,17.2,17.9,138.04,31.69,24.65,36.46,0.96,17.93,-26.56,-61,548,-936,26.6,18.1,0.4,26.5,1.3,-31.4,5.73,2.38,-27.9,30.9
2012-06-01 00:04:00,0.0,1.9107,0.0008,400.55,0.21,19.4,22.5,138.04,31.69,24.65,36.47,0.95,17.96,-26.55,-61,548,-936,26.6,18.1,0.4,26.5,1.3,-31.4,5.73,2.38,-27.9,30.9
2012-06-01 00:05:00,0.0,1.9110,0.0011,400.53,0.20,15.2,21.1,138.04,31.68,24.64,36.47,0.95,17.98,-26.56,-61,548,-936,26.6,18.0,0.3,26.5,1.3,-31.4,5.73,2.38,-27.9,30.8
2012-06-01 00:06:00,0.0,1.9110,0.0009,400.61,0.19,18.9,22.7,138.04,31.68,24.65,36.46,0.95,18.01,-26.56,-61,548,-936,26.6,18.0,0.3,26.5,1.3,-31.5,5.73,2.38,-27.9,30.8
2012-06-01 00:07:00,0.0,1.9106,0.0009,400.75,0.24,19.1,21.6,138.04,31.68,24.65,36.45,0.95,18.03,-26.55,-61,548,-936,26.6,18.0,0.3,26.5,1.3,-31.4,5.73,2.38,-27.9,30.8
2012-06-01 00:08:00,0.0,1.9108,0.0008,400.56,0.20,17.4,23.0,138.04,31.67,24.64,36.46,0.95,18.05,-26.55,-61,548,-936,26.5,18.1,0.3,26.5,1.3,-31.5,5.73,2.38,-27.9,30.8
2012-06-01 00:09:00,0.0,1.9108,0.0008,400.59,0.19,13.5,18.9,138.04,31.67,24.65,36.46,0.92,18.07,-26.55,-61,548,-936,26.5,18.0,0.3,26.5,1.3,-31.4,5.73,2.37,-27.9,30.7
2012-06-01 00:10:00,0.0,1.9106,0.0009,400.64,0.18,17.5,21.1,138.04,31.66,24.65,36.46,0.95,18.09,-26.55,-61,548,-936,26.5,18.0,0.3,26.5,1.3,-31.4,5.73,2.38,-27.9,30.8
2012-06-01 00:11:00,0.0,1.9104,0.0009,400.60,0.18,15.5,21.1,138.04,31.66,24.65,36.46,0.94,18.11,-26.56,-61,548,-936,26.5,18.1,0.3,26.5,1.3,-31.5,5.73,2.38,-27.9,30.8
2012-06-01 00:12:00,0.0,1.9106,0.0009,400.53,0.22,16.3,19.1,138.04,31.66,24.65,36.46,0.95,18.13,-26.55,-61,548,-936,26.5,18.1,0.3,26.5,1.3,-31.4,5.73,2.38,-27.9,30.7
2012-06-01 00:13:00,0.0,1.9106,0.0010,400.57,0.20,19.6,23.0,138.04,31.65,24.65,36.47,0.95,18.14,-26.55,-61,548,-936,26.5,18.1,0.3,26.5,1.3,-31.4,5.73,2.38,-27.9,30.8
2012-06-01 00:14:00,0.0,1.9105,0.0007,400.51,0.17,17.9,15.5,138.04,31.65,24.65,36.46,0.94,18.16,-26.56,-61,548,-936,26.5,18.1,0.4,26.5,1.3,-31.4,5.73,2.38,-27.9,30.8
2012-06-01 00:15:00,0.0,1.9111,0.0008,400.56,0.19,15.8,20.8,138.04,31.65,24.64,36.47,0.92,18.18,-26.55,-61,548,-936,26.5,18.3,0.5,26.5,1.3,-31.4,5.73,2.37,-27.9,30.8
2012-06-01 00:16:00,0.0,1.9110,0.0008,400.56,0.17,15.8,18.0,138.04,31.64,24.65,36.46,0.94,18.19,-26.56,-61,548,-936,26.5,18.2,0.4,26.5,1.3,-31.5,5.73,2.37,-28.0,30.8
2012-06-01 00:17:00,0.0,1.9113,0.0009,400.61,0.21,12.9,17.5,138.04,31.64,24.65,36.46,0.94,18.21,-26.56,-61,548,-936,26.5,18.2,0.4,26.5,1.3,-31.5,5.73,2.38,-27.9,30.7
2012-06-01 00:18:00,0.0,1.9115,0.0009,400.71,0.17,14.3,19.3,138.04,31.63,24.65,36.46,0.93,18.22,-26.55,-61,548,-936,26.5,18.3,0.5,26.5,1.3,-31.4,5.73,2.38,-28.0,30.7
2012-06-01 00:19:00,0.0,1.9110,0.0009,400.62,0.19,15.1,18.9,138.04,31.63,24.65,36.46,0.95,18.23,-26.56,-60,548,-936,26.5,18.4,0.6,26.5,1.3,-31.5,5.73,2.38,-28.0,30.7
2012-06-01 00:20:00,0.0,1.9112,0.0009,400.52,0.17,11.0,18.4,138.04,31.63,24.65,36.46,0.96,18.25,-26.56,-60,548,-936,26.5,18.5,0.6,26.5,1.3,-31.5,5.73,2.37,-28.0,30.7
2012-06-01 00:21:00,0.0,1.9115,0.0009,400.64,0.19,12.3,15.3,138.04,31.63,24.65,36.46,0.93,18.26,-26.56,-61,548,-936,26.5,18.7,0.8,26.5,1.3,-31.5,5.73,2.37,-28.0,30.7
2012-06-01 00:22:00,0.0,1.9115,0.0008,400.66,0.19,17.8,22.1,138.04,31.62,24.65,36.47,1.07,18.14,-26.56,-61,548,-936,26.5,18.3,0.5,26.5,1.3,-31.6,5.73,2.37,-28.0,30.8
2012-06-01 00:23:00,0.0,1.9115,0.0008,400.66,0.20,14.3,17.4,138.04,31.62,24.65,36.46,1.08,16.70,-26.57,-61,548,-936,26.5,18.3,0.5,26.5,1.3,-31.5,5.73,2.38,-28.0,30.7
2012-06-01 00:24:00,0.0,1.9115,0.0011,400.71,0.17,20.1,21.7,138.04,31.62,24.65,36.46,1.01,14.47,-26.57,-61,548,-936,26.5,18.4,0.6,26.5,1.3,-31.5,5.73,2.38,-28.0,30.7
2012-06-01 00:25:00,0.0,1.9120,0.0011,400.67,0.22,17.3,20.6,138.04,31.61,24.65,36.46,1.08,12.13,-26.56,-61,548,-936,26.5,18.5,0.6,26.4,1.3,-31.5,5.73,2.37,-28.0,30.7
2012-06-01 00:26:00,0.0,1.9120,0.0007,400.64,0.18,13.8,17.9,138.04,31.61,24.65,36.46,1.04,9.81,-26.56,-61,548,-936,26.5,18.4,0.5,26.4,1.3,-31.5,5.73,2.38,-28.0,30.7
2012-06-01 00:27:00,0.0,1.9120,0.0011,400.63,0.17,16.0,19.8,138.04,31.61,24.65,36.47,0.99,7.60,-26.55,-61,548,-936,26.5,18.4,0.5,26.4,1.3,-31.5,5.73,2.38,-28.0,30.7
2012-06-01 00:28:00,0.0,1.9120,0.0010,400.74,0.18,12.2,17.9,138.04,31.61,24.65,36.46,1.05,5.47,-26.53,-61,548,-935,26.5,18.6,0.7,26.4,1.3,-31.5,5.73,2.38,-28.0,30.7
2012-06-01 00:29:00,0.0,1.9122,0.0009,400.72,0.15,14.0,17.4,138.04,31.60,24.65,36.46,1.09,3.44,-26.51,-61,548,-936,26.5,18.5,0.6,26.4,1.3,-31.5,5.73,2.38,-28.0,30.7
2012-06-01 00:30:00,0.0,1.9122,0.0009,400.77,0.17,17.6,22.8,138.04,31.60,24.65,36.46,1.02,1.51,-26.50,-61,548,-936,26.5,18.5,0.6,26.4,1.3,-31.5,5.73,2.38,-28.0,30.7
2012-06-01 00:31:00,0.0,1.9123,0.0010,400.76,0.22,18.9,22.0,138.04,31.59,24.65,36.46,1.00,-0.31,-26.47,-61,547,-936,26.5,18.5,0.6,26.4,1.3,-31.5,5.73,2.38,-28.0,30.7
2012-06-01 00:32:00,0.0,1.9124,0.0008,400.76,0.18,15.4,19.3,138.04,31.58,24.65,36.46,1.09,-2.03,-26.46,-61,547,-936,26.5,18.5,0.6,26.4,1.3,-31.5,5.73,2.38,-28.0,30.6
2012-06-01 00:33:00,0.0,1.9123,0.0010,400.82,0.17,17.5,20.2,138.04,31.58,24.65,36.46,1.06,-3.65,-26.45,-61,547,-935,26.5,18.4,0.5,26.4,1.3,-31.5,5.73,2.38,-28.0,30.7
2012-06-01 00:34:00,0.0,1.9120,0.0008,400.77,0.15,14.4,18.4,138.04,31.58,24.65,36.47,0.98,-5.15,-26.43,-61,548,-936,26.5,18.1,0.3,26.4,1.3,-31.5,5.73,2.37,-28.0,30.6
2012-06-01 00:35:00,0.0,1.9121,0.0008,400.86,0.20,14.5,17.2,138.04,31.57,24.65,36.46,1.03,-6.56,-26.42,-61,548,-936,26.5,17.9,0.2,26.4,1.3,-31.5,5.73,2.38,-28.0,30.6
2012-06-01 00:36:00,0.0,1.9122,0.0007,400.89,0.20,21.6,27.3,138.04,31.57,24.65,36.46,1.09,-7.86,-26.42,-61,548,-936,26.4,18.0,0.2,26.4,1.3,-31.5,5.73,2.37,-28.1,30.5
2012-06-01 00:37:00,0.0,1.9121,0.0010,400.88,0.20,13.7,19.1,138.04,31.56,24.65,36.46,1.02,-9.09,-26.41,-61,548,-936,26.4,18.0,0.2,26.4,1.3,-31.5,5.73,2.37,-28.0,30.5
2012-06-01 00:38:00,0.0,1.9121,0.0008,400.84,0.19,18.1,22.5,138.04,31.56,24.65,36.46,0.97,-10.16,-26.41,-61,548,-936,26.4,18.0,0.2,26.4,1.3,-31.5,5.73,2.37,-28.0,30.5
2012-06-01 00:39:00,0.0,1.9124,0.0009,400.75,0.19,19.7,23.4,138.04,31.55,24.65,36.47,1.05,-11.31,-26.40,-61,548,-936,26.4,18.1,0.2,26.4,1.3,-31.5,5.73,2.37,-28.0,30.5
2012-06-01 00:40:00,0.0,1.9121,0.0010,400.80,0.24,17.0,19.9,138.04,31.55,24.65,36.47,1.07,-12.38,-26.40,-61,548,-936,26.4,18.1,0.3,26.3,1.3,-31.6,5.73,2.38,-28.1,30.5
2012-06-01 00:41:00,0.0,1.9121,0.0008,400.85,0.19,18.1,20.0,138.04,31.55,24.65,36.46,1.01,-13.39,-26.41,-61,548,-936,26.4,18.2,0.3,26.3,1.3,-31.5,5.73,2.38,-28.1,30.6
2012-06-01 00:42:00,0.0,1.9124,0.0008,400.86,0.17,14.8,20.4,138.04,31.54,24.65,36.47,0.97,-14.25,-26.40,-61,548,-936,26.4,18.1,0.2,26.3,1.3,-31.5,5.73,2.38,-28.1,30.5
2012-06-01 00:43:00,0.0,1.9122,0.0008,400.88,0.18,16.2,20.3,138.04,31.54,24.65,36.47,1.02,-15.08,-26.41,-61,548,-935,26.4,18.3,0.4,26.3,1.3,-31.5,5.73,2.38,-28.1,30.6
2012-06-01 00:44:00,0.0,1.9121,0.0008,401.02,0.19,14.7,17.3,138.04,31.53,24.65,36.46,1.09,-15.90,-26.42,-61,547,-935,26.4,18.4,0.4,26.3,1.3,-31.5,5.73,2.38,-28.1,30.6
2012-06-01 00:45:00,0.0,1.9119,0.0008,401.01,0.19,20.7,23.9,138.04,31.53,24.65,36.46,1.03,-16.67,-26.42,-61,547,-935,26.3,18.1,0.2,26.3,1.3,-31.6,5.73,2.38,-28.1,30.6
2012-06-01 00:46:00,0.0,1.9115,0.0009,401.10,0.15,19.2,21.6,138.04,31.52,24.65,36.46,0.97,-17.40,-26.42,-61,547,-935,26.4,18.2,0.3,26.3,1.3,-31.5,5.73,2.39,-28.1,30.5
2012-06-01 00:47:00,0.0,1.9107,0.0010,401.12,0.20,14.8,22.0,138.04,31.52,24.65,36.46,1.01,-18.08,-26.43,-61,548,-935,26.4,17.8,0.0,26.3,1.3,-31.5,5.73,2.38,-28.1,30.5
2012-06-01 00:48:00,0.0,1.9109,0.0010,401.09,0.18,9.2,15.3,138.04,31.51,24.65,36.46,1.06,-18.73,-26.44,-61,548,-935,26.3,17.8,-0.0,26.3,1.3,-31.6,5.73,2.38,-28.1,30.5
2012-06-01 00:49:00,0.0,1.9104,0.0008,401.16,0.18,17.1,23.6,138.04,31.51,24.65,36.46,1.05,-19.34,-26.45,-61,547,-935,26.3,17.8,-0.0,26.3,1.3,-31.5,5.73,2.38,-28.1,30.5
2012-06-01 00:50:00,0.0,1.9105,0.0011,401.03,0.18,18.4,24.2,138.04,31.50,24.65,36.47,0.99,-19.94,-26.46,-61,547,-935,26.3,17.7,-0.1,26.3,1.3,-31.6,5.73,2.38,-28.1,30.5
2012-06-01 00:51:00,0.0,1.9109,0.0008,401.04,0.21,17.2,18.0,138.04,31.50,24.65,36.46,0.97,-20.49,-26.47,-61,547,-935,26.3,17.8,-0.1,26.3,1.3,-31.6,5.73,2.38,-28.1,30.5
2012-06-01 00:52:00,0.0,1.9110,0.0008,401.08,0.20,15.5,18.2,138.04,31.50,24.65,36.46,1.04,-21.01,-26.48,-61,547,-935,26.3,18.0,0.1,26.3,1.3,-31.5,5.73,2.38,-28.1,30.5
2012-06-01 00:53:00,0.0,1.9089,0.0011,401.08,0.16,21.2,22.2,138.04,31.49,24.65,36.46,1.06,-21.52,-26.49,-61,547,-936,26.3,17.7,-0.2,26.3,1.3,-31.5,5.73,2.37,-28.1,30.6
2012-06-01 00:54:00,0.0,1.9085,0.0009,401.06,0.17,16.4,17.5,138.04,31.49,24.65,36.47,1.02,-22.00,-26.50,-61,547,-935,26.3,17.4,-0.3,26.2,1.3,-31.6,5.73,2.38,-28.1,30.6
2012-06-01 00:55:00,0.0,1.9091,0.0008,401.08,0.17,21.4,22.5,138.04,31.49,24.65,36.46,0.96,-22.44,-26.51,-61,547,-935,26.3,17.7,-0.1,26.3,1.3,-31.6,5.73,2.38,-28.1,30.6
2012-06-01 00:56:00,0.0,1.9076,0.0012,401.09,0.17,16.7,20.3,138.04,31.48,24.65,36.47,1.00,-22.87,-26.52,-61,547,-935,26.3,17.1,-0.6,26.2,1.3,-31.6,5.73,2.38,-28.1,30.6
2012-06-01 00:57:00,0.0,1.9071,0.0008,401.18,0.28,21.8,21.1,138.04,31.48,24.65,36.46,1.05,-23.27,-26.53,-61,547,-935,26.3,16.9,-0.8,26.2,1.3,-31.6,5.73,2.37,-28.1,30.5
2012-06-01 00:58:00,0.0,1.9075,0.0010,401.02,0.21,11.2,17.8,138.04,31.48,24.65,36.46,1.06,-23.64,-26.54,-61,547,-935,26.3,17.3,-0.4,26.2,1.3,-31.6,5.73,2.38,-28.1,30.5
2012-06-01 00:59:00,0.0,1.9075,0.0009,401.00,0.21,19.2,20.7,138.04,31.47,24.65,36.47,0.99,-23.99,-26.55,-61,547,-935,26.3,17.3,-0.4,26.2,1.3,-31.6,5.73,2.37,-28.1,30.5
2012-06-01 01:00:00,0.0,1.9066,0.0011,401.02,0.19,23.6,24.1,138.04,31.47,24.65,36.46,0.96,-24.32,-26.57,-61,547,-935,26.3,17.1,-0.6,26.2,1.3,-31.5,5.73,2.37,-28.1,30.5
2012-06-01 01:01:00,0.0,1.9063,0.0009,401.09,0.20,19.6,22.9,138.04,31.46,24.65,36.46,0.99,-24.63,-26.58,-61,547,-935,26.3,17.3,-0.5,26.2,1.3,-31.7,5.73,2.38,-28.1,30.5
2012-06-01 01:02:00,0.0,1.9055,0.0009,401.06,0.17,19.3,20.6,138.04,31.46,24.65,36.46,1.04,-24.93,-26.59,-61,547,-936,26.3,17.0,-0.7,26.2,1.2,-31.8,5.73,2.38,-28.1,30.5
2012-06-01 01:03:00,0.0,1.9050,0.0009,401.08,0.19,17.7,20.6,138.04,31.46,24.65,36.46,1.06,-25.20,-26.60,-61,547,-936,26.3,16.7,-0.9,26.2,1.2,-31.8,5.73,2.38,-28.1,30.5
2012-06-01 01:04:00,0.0,1.9058,0.0009,401.14,0.16,16.6,19.3,138.05,31.45,24.65,36.46,0.99,-25.46,-26.61,-60,547,-936,26.3,16.8,-0.9,26.2,1.2,-31.8,5.73,2.38,-28.1,30.5
2012-06-01 01:05:00,0.0,1.9058,0.0010,401.07,0.18,10.0,16.0,138.04,31.45,24.65,36.46,0.97,-25.70,-26.62,-60,547,-935,26.3,17.1,-0.6,26.2,1.2,-31.8,5.73,2.37,-28.1,30.5
2012-06-01 01:06:00,0.0,1.9055,0.0009,400.97,0.18,17.7,21.8,138.05,31.45,24.65,36.47,1.00,-25.93,-26.63,-61,547,-935,26.3,17.2,-0.6,26.2,1.3,-31.8,5.73,2.38,-28.1,30.4
2012-06-01 01:07:00,0.0,1.9045,0.0008,400.95,0.22,26.0,25.4,138.04,31.44,24.65,36.46,1.03,-26.15,-26.64,-61,547,-935,26.3,17.1,-0.7,26.2,1.2,-31.8,5.73,2.38,-28.1,30.5
2012-06-01 01:08:00,0.0,1.9041,0.0009,400.95,0.17,14.5,15.8,138.05,31.44,24.65,36.46,1.05,-26.35,-26.65,-61,547,-935,26.3,17.3,-0.5,26.2,1.3,-31.7,5.73,2.38,-28.2,30.4
2012-06-01 01:09:00,0.0,1.9040,0.0009,401.00,0.16,20.0,21.0,138.05,31.44,24.65,36.46,1.00,-26.54,-26.67,-60,547,-935,26.3,16.9,-0.8,26.2,1.3,-31.7,5.73,2.38,-28.2,30.4
2012-06-01 01:10:00,0.0,1.9038,0.0009,400.96,0.17,15.4,18.1,138.05,31.43,24.65,36.47,1.02,-26.52,-26.67,-60,547,-936,26.3,16.6,-1.1,26.2,1.3,-31.8,5.73,2.38,-28.1,30.4
2012-06-01 01:11:00,0.0,1.9039,0.0009,400.92,0.19,10.8,17.5,138.05,31.43,24.65,36.47,0.99,-26.27,-26.69,-60,547,-936,26.3,16.6,-1.1,26.2,1.3,-31.7,5.73,2.38,-28.2,30.4
2012-06-01 01:12:00,0.0,1.9043,0.0008,400.94,0.17,14.3,18.5,138.05,31.42,24.65,36.46,0.96,-26.36,-26.69,-60,547,-936,26.3,16.9,-0.8,26.2,1.3,-31.5,5.73,2.39,-28.1,30.4
2012-06-01 01:13:00,0.0,1.9049,0.0008,400.89,0.20,15.9,19.7,138.05,31.42,24.65,36.47,1.01,-26.53,-26.70,-60,547,-936,26.3,16.9,-0.8,26.2,1.3,-31.3,5.73,2.38,-28.2,30.4
2012-06-01 01:14:00,0.0,1.9053,0.0008,401.03,0.21,15.9,19.8,138.05,31.41,24.65,36.46,0.99,-26.64,-26.72,-60,547,-936,26.3,17.1,-0.6,26.2,1.3,-31.4,5.73,2.38,-28.2,30.4
2012-06-01 01:15:00,0.0,1.9058,0.0009,401.15,0.18,14.3,19.7,138.04,31.41,24.65,36.45,1.06,-26.33,-26.72,-60,547,-936,26.3,17.0,-0.8,26.2,1.3,-31.5,5.73,2.38,-28.2,30.4
2012-06-01 01:16:00,0.0,1.9051,0.0009,401.01,0.23,12.5,17.0,138.05,31.41,24.65,36.46,1.06,-26.36,-26.73,-60,547,-936,26.3,17.0,-0.7,26.2,1.3,-31.4,5.73,2.38,-28.2,30.4
2012-06-01 01:17:00,0.0,1.9051,0.0010,400.83,0.19,14.6,21.4,138.05,31.40,24.65,36.47,0.99,-26.52,-26.74,-60,547,-936,26.3,17.0,-0.7,26.2,1.3,-31.4,5.73,2.38,-28.2,30.4
2012-06-01 01:18:00,0.0,1.9057,0.0009,400.97,0.18,12.3,17.3,138.04,31.40,24.65,36.46,0.96,-26.69,-26.75,-61,547,-936,26.3,17.1,-0.7,26.2,1.3,-31.4,5.73,2.38,-28.2,30.4
2012-06-01 01:19:00,0.0,1.9059,0.0010,400.99,0.25,14.9,18.5,138.05,31.40,24.65,36.46,1.01,-26.46,-26.76,-60,547,-936,26.3,17.4,-0.4,26.2,1.3,-31.4,5.73,2.37,-28.2,30.4
2012-06-01 01:20:00,0.0,1.9067,0.0010,400.92,0.16,12.2,22.0,138.04,31.40,24.65,36.47,0.98,-26.36,-26.76,-60,547,-936,26.3,17.6,-0.3,26.2,1.3,-31.4,5.73,2.37,-28.2,30.3
2012-06-01 01:21:00,0.0,1.9071,0.0008,400.98,0.23,17.2,21.2,138.05,31.39,24.65,36.46,0.89,-26.51,-26.49,-60,547,-936,26.3,17.6,-0.3,26.2,1.3,-31.4,5.73,2.39,-28.2,30.4
2012-06-01 01:22:00,0.0,1.9070,0.0008,400.87,0.22,15.7,21.1,138.05,31.39,24.65,36.47,0.95,-26.68,-24.94,-60,547,-936,26.3,17.5,-0.3,26.2,1.4,-30.7,5.73,2.38,-28.2,30.4
2012-06-01 01:23:00,0.0,1.9072,0.0009,400.93,0.17,14.0,20.7,138.05,31.38,24.65,36.47,0.96,-26.79,-22.97,-60,547,-936,26.2,17.5,-0.3,26.2,1.6,-29.2,5.73,2.38,-28.2,30.4
2012-06-01 01:24:00,0.0,1.9074,0.0010,400.91,0.22,17.1,18.8,138.05,31.38,24.65,36.47,0.86,-26.84,-20.99,-60,547,-936,26.2,17.6,-0.3,26.2,1.7,-28.3,5.73,2.38,-28.2,30.4
2012-06-01 01:25:00,0.0,1.9072,0.0008,400.89,0.21,12.1,18.6,138.04,31.38,24.65,36.47,0.81,-26.85,-19.09,-60,547,-936,26.2,17.9,-0.1,26.1,1.8,-28.0,5.73,2.38,-28.2,30.4
2012-06-01 01:26:00,0.0,1.9070,0.0008,400.83,0.20,11.4,19.1,138.05,31.37,24.65,36.47,0.87,-26.85,-17.26,-60,547,-936,26.2,17.9,-0.1,26.2,1.8,-28.0,5.73,2.38,-28.2,30.4
2012-06-01 01:27:00,0.0,1.9075,0.0009,400.85,0.17,15.0,18.0,138.05,31.37,24.65,36.47,0.92,-26.82,-15.53,-60,547,-936,26.2,17.9,-0.0,26.1,1.8,-28.1,5.73,2.38,-28.2,30.4
2012-06-01 01:28:00,0.0,1.9075,0.0008,400.92,0.19,17.8,20.7,138.05,31.36,24.64,36.46,0.96,-26.80,-13.90,-60,547,-936,26.2,17.9,-0.1,26.1,1.8,-28.3,5.73,2.39,-28.2,30.3
2012-06-01 01:29:00,0.0,1.9076,0.0008,400.89,0.19,12.8,19.1,138.05,31.36,24.65,36.47,0.91,-26.77,-12.35,-60,547,-936,26.2,18.1,0.0,26.1,1.7,-28.4,5.73,2.38,-28.2,30.4
2012-06-01 01:30:00,0.0,1.9080,0.0008,400.89,0.22,13.7,17.6,138.05,31.36,24.65,36.46,0.82,-26.73,-10.88,-60,547,-936,26.2,18.2,0.1,26.1,1.7,-28.7,5.73,2.38,-28.2,30.4
2012-06-01 01:31:00,0.0,1.9084,0.0011,401.00,0.18,17.1,21.9,138.05,31.35,24.65,36.46,0.85,-26.70,-9.49,-60,547,-936,26.2,18.0,-0.0,26.1,1.7,-28.9,5.73,2.38,-28.2,30.4
2012-06-01 01:32:00,0.0,1.9082,0.0009,400.95,0.22,9.3,15.7,138.05,31.35,24.65,36.46,0.90,-26.67,-8.17,-60,547,-936,26.2,18.1,0.1,26.1,1.6,-29.0,5.73,2.38,-28.2,30.4
2012-06-01 01:33:00,0.0,1.9079,0.0010,400.96,0.22,10.8,16.7,138.05,31.35,24.64,36.46,0.93,-26.64,-6.93,-60,547,-936,26.2,17.9,-0.1,26.1,1.6,-29.2,5.73,2.38,-28.2,30.4
2012-06-01 01:34:00,0.0,1.9075,0.0009,400.94,0.21,15.8,21.7,138.05,31.34,24.65,36.46,0.95,-26.61,-5.74,-60,547,-936,26.2,18.0,-0.0,26.1,1.6,-29.3,5.73,2.38,-28.2,30.3
2012-06-01 01:35:00,0.0,1.9076,0.0009,400.92,0.19,18.5,22.4,138.05,31.34,24.65,36.47,0.93,-26.58,-4.61,-60,547,-936,26.2,18.3,0.2,26.1,1.6,-29.4,5.73,2.38,-28.2,30.3
2012-06-01 01:36:00,0.0,1.9058,0.0012,400.94,0.19,9.4,14.0,138.05,31.34,24.65,36.46,0.88,-26.55,-3.53,-60,547,-936,26.2,18.0,-0.0,26.1,1.6,-29.4,5.73,2.38,-28.2,30.3
2012-06-01 01:37:00,0.0,1.9049,0.0008,400.92,0.19,16.9,19.8,138.05,31.33,24.65,36.46,0.86,-26.52,-2.51,-60,547,-936,26.2,17.8,-0.2,26.1,1.6,-29.6,5.73,2.39,-28.2,30.3
2012-06-01 01:38:00,0.0,1.9053,0.0008,400.99,0.17,10.9,18.2,138.05,31.33,24.64,36.46,0.87,-26.50,-1.54,-60,547,-936,26.2,17.9,-0.1,26.1,1.6,-29.6,5.73,2.38,-28.2,30.3
2012-06-01 01:39:00,0.0,1.9041,0.0010,400.86,0.21,12.9,20.2,138.05,31.33,24.65,36.47,0.92,-26.47,-0.61,-60,547,-936,26.2,17.8,-0.2,26.1,1.5,-29.7,5.73,2.38,-28.1,30.3
2012-06-01 01:40:00,0.0,1.9043,0.0009,400.86,0.19,11.9,17.3,138.05,31.32,24.65,36.47,0.95,-26.44,0.27,-60,547,-936,26.2,17.8,-0.2,26.1,1.5,-29.8,5.73,2.39,-28.1,30.3
2012-06-01 01:41:00,0.0,1.9045,0.0010,400.89,0.19,16.7,21.0,138.05,31.32,24.64,36.47,0.96,-26.42,1.10,-60,547,-936,26.2,17.7,-0.3,26.1,1.5,-29.8,5.73,2.38,-28.1,30.3
2012-06-01 01:42:00,0.0,1.9043,0.0009,400.96,0.22,17.1,20.2,138.05,31.32,24.65,36.46,0.95,-26.39,1.89,-60,547,-936,26.1,17.6,-0.3,26.1,1.5,-29.8,5.73,2.38,-28.1,30.3
2012-06-01 01:43:00,0.0,1.9038,0.0009,400.99,0.21,12.8,17.1,138.05,31.32,24.65,36.46,0.90,-26.37,2.60,-60,547,-936,26.2,17.6,-0.3,26.1,1.5,-30.0,5.73,2.39,-28.1,30.4
2012-06-01 01:44:00,0.0,1.9032,0.0010,400.94,0.18,14.1,17.4,138.05,31.31,24.65,36.47,0.87,-26.35,3.11,-60,547,-935,26.2,17.7,-0.3,26.1,1.5,-30.0,5.73,2.38,-28.1,30.3
2012-06-01 01:45:00,0.0,1.9023,0.0012,400.96,0.17,16.9,19.2,138.05,31.31,24.65,36.46,0.87,-26.33,3.40,-60,547,-936,26.1,17.5,-0.4,26.1,1.5,-30.0,5.73,2.38,-28.1,30.3
2012-06-01 01:46:00,0.0,1.9021,0.0011,400.86,0.18,16.3,22.3,138.05,31.30,24.65,36.47,0.91,-26.31,3.81,-60,547,-936,26.1,17.4,-0.6,26.1,1.5,-30.0,5.73,2.38,-28.1,30.4
2012-06-01 01:47:00,0.0,1.9022,0.0011,400.93,0.18,18.5,20.3,138.05,31.30,24.65,36.46,0.93,-26.29,4.36,-60,547,-936,26.1,17.5,-0.4,26.1,1.5,-30.0,5.73,2.38,-28.0,30.4
2012-06-01 01:48:00,0.0,1.9013,0.0009,400.95,0.18,20.4,21.1,138.05,31.30,24.64,36.47,0.95,-26.27,4.97,-60,547,-936,26.1,17.1,-0.7,26.1,1.5,-30.1,5.73,2.38,-28.0,30.4
2012-06-01 01:49:00,0.0,1.9012,0.0008,400.98,0.18,21.5,19.8,138.05,31.29,24.65,36.46,0.96,-26.25,5.55,-60,547,-936,26.1,17.2,-0.6,26.1,1.5,-30.2,5.73,2.39,-28.0,30.4
2012-06-01 01:50:00,0.0,1.9009,0.0008,400.92,0.18,13.6,16.9,138.05,31.29,24.65,36.46,0.96,-26.23,6.10,-60,547,-936,26.1,17.4,-0.5,26.1,1.5,-30.2,5.73,2.38,-28.0,30.4
2012-06-01 01:51:00,0.0,1.9007,0.0010,400.85,0.19,21.2,22.0,138.05,31.29,24.65,36.47,0.93,-26.21,6.63,-60,547,-935,26.1,17.5,-0.4,26.0,1.5,-30.2,5.73,2.38,-28.0,30.4
2012-06-01 01:52:00,0.0,1.8990,0.0011,400.90,0.21,14.6,17.7,138.05,31.28,24.65,36.47,0.89,-26.20,7.13,-60,547,-936,26.1,16.8,-1.0,26.1,1.5,-30.2,5.73,2.38,-28.0,30.4
2012-06-01 01:53:00,0.0,1.8984,0.0011,400.94,0.19,17.0,20.1,138.05,31.28,24.65,36.47,0.88,-26.18,7.60,-60,547,-936,26.1,16.5,-1.3,26.0,1.5,-30.2,5.73,2.38,-28.0,30.4
2012-06-01 01:54:00,0.0,1.8985,0.0010,400.93,0.19,26.3,24.3,138.05,31.28,24.65,36.47,0.90,-26.18,8.06,-60,547,-936,26.1,16.6,-1.2,26.1,1.5,-30.2,5.73,2.38,-28.0,30.4
2012-06-01 01:55:00,0.0,1.8987,0.0008,401.00,0.19,15.4,18.5,138.05,31.27,24.65,36.46,0.91,-26.16,8.48,-60,547,-936,26.1,16.8,-1.0,26.0,1.5,-30.2,5.73,2.38,-28.0,30.4
2012-06-01 01:56:00,0.0,1.8988,0.0008,400.96,0.20,13.2,15.7,138.05,31.27,24.65,36.46,0.93,-26.14,8.90,-60,547,-935,26.1,17.2,-0.7,26.0,1.5,-30.2,5.73,2.38,-28.0,30.4
2012-06-01 01:57:00,0.0,1.8995,0.0009,400.91,0.16,16.4,22.3,138.05,31.27,24.65,36.47,0.93,-26.13,9.30,-60,547,-935,26.1,17.4,-0.5,26.0,1.5,-30.2,5.73,2.38,-28.0,30.4
2012-06-01 01:58:00,0.0,1.8992,0.0010,400.95,0.18,18.1,24.3,138.05,31.26,24.65,36.47,0.95,-26.12,9.68,-60,546,-935,26.1,17.2,-0.7,26.0,1.5,-30.2,5.73,2.38,-28.0,30.4
2012-06-01 01:59:00,0.0,1.8991,0.0009,400.95,0.20,17.6,22.4,138.05,31.26,24.65,36.47,0.96,-26.11,10.06,-60,546,-936,26.1,17.3,-0.6,26.0,1.5,-30.2,5.73,2.38,-28.0,30.4
2012-06-01 02:00:00,0.0,1.8989,0.0009,401.03,0.19,20.7,22.5,138.05,31.26,24.65,36.46,0.95,-26.10,10.42,-60,546,-936,26.1,17.2,-0.7,26.0,1.5,-30.3,5.73,2.38,-28.0,30.4
2012-06-01 02:01:00,0.0,1.8986,0.0009,401.05,0.18,15.3,22.2,138.05,31.25,24.65,36.46,0.93,-26.09,10.78,-60,547,-935,26.1,17.1,-0.8,26.0,1.5,-30.2,5.73,2.38,-28.0,30.4
2012-06-01 02:02:00,0.0,1.8988,0.0010,401.02,0.16,9.7,14.7,138.05,31.25,24.65,36.46,0.91,-26.07,11.12,-60,546,-935,26.1,17.4,-0.5,26.0,1.5,-30.2,5.73,2.38,-28.0,30.3
2012-06-01 02:03:00,0.0,1.8981,0.0009,400.99,0.23,13.0,17.3,138.05,31.25,24.65,36.47,0.88,-26.07,11.45,-60,546,-935,26.1,17.3,-0.6,26.0,1.5,-30.2,5.73,2.38,-28.0,30.3
2012-06-01 02:04:00,0.0,1.8976,0.0008,400.96,0.22,20.0,21.4,138.05,31.24,24.65,36.47,0.89,-26.06,11.77,-60,546,-935,26.1,17.3,-0.6,26.0,1.5,-30.2,5.73,2.38,-28.0,30.3
2012-06-01 02:05:00,0.0,1.8974,0.0009,400.93,0.17,14.7,19.2,138.05,31.24,24.65,36.47,0.90,-26.05,12.08,-60,546,-935,26.1,16.9,-0.9,26.0,1.5,-30.2,5.73,2.38,-28.0,30.3
2012-06-01 02:06:00,0.0,1.8976,0.0008,401.12,0.16,17.5,19.5,138.05,31.24,24.65,36.46,0.92,-26.03,12.38,-60,547,-935,26.1,17.1,-0.8,26.0,1.5,-30.2,5.73,2.37,-28.0,30.3
2012-06-01 02:07:00,0.0,1.8980,0.0009,400.96,0.19,14.5,21.3,138.05,31.23,24.64,36.47,0.94,-26.03,12.66,-60,546,-935,26.1,17.2,-0.7,26.0,1.5,-30.2,5.73,2.38,-28.0,30.4
2012-06-01 02:08:00,0.0,1.8970,0.0010,400.97,0.19,25.0,25.5,138.05,31.23,24.65,36.47,0.94,-26.02,12.93,-60,546,-935,26.1,17.0,-0.8,26.0,1.5,-30.3,5.73,2.38,-28.0,30.3
2012-06-01 02:09:00,0.0,1.8970,0.0009,400.99,0.17,18.4,20.4,138.05,31.23,24.65,36.47,0.94,-26.01,13.20,-60,546,-935,26.1,16.7,-1.1,26.0,1.5,-30.2,5.73,2.38,-28.0,30.3
2012-06-01 02:10:00,0.0,1.8968,0.0008,400.99,0.19,18.2,18.8,138.05,31.22,24.65,36.47,0.95,-26.01,13.45,-60,546,-935,26.1,16.6,-1.2,26.0,1.5,-30.3,5.73,2.38,-28.0,30.3
2012-06-01 02:11:00,0.0,1.8971,0.0007,400.97,0.17,19.4,22.5,138.05,31.22,24.65,36.47,0.95,-26.00,13.69,-60,546,-935,26.1,16.9,-0.9,26.0,1.5,-30.3,5.73,2.38,-28.0,30.3
2012-06-01 02:12:00,0.0,1.8967,0.0010,400.94,0.20,18.9,20.7,138.05,31.22,24.65,36.47,0.93,-25.99,13.93,-60,546,-935,26.1,16.7,-1.1,26.0,1.5,-30.2,5.73,2.37,-28.0,30.3
2012-06-01 02:13:00,0.0,1.8968,0.0009,400.93,0.19,17.8,20.1,138.05,31.21,24.65,36.47,0.90,-25.99,14.15,-60,546,-935,26.1,17.0,-0.9,26.0,1.5,-30.2,5.73,2.38,-28.0,30.3
2012-06-01 02:14:00,0.0,1.8967,0.0009,401.02,0.17,14.8,21.0,138.05,31.21,24.65,36.46,0.89,-25.98,14.36,-60,546,-935,26.1,17.3,-0.6,26.0,1.5,-30.2,5.73,2.38,-28.0,30.3
2012-06-01 02:15:00,0.0,1.8960,0.0007,400.95,0.15,16.0,21.6,138.05,31.20,24.65,36.47,0.93,-25.97,14.57,-60,546,-935,26.1,17.1,-0.8,26.0,1.5,-30.3,5.73,2.38,-28.0,30.2
2012-06-01 02:16:00,0.0,1.8957,0.0009,400.98,0.17,21.3,20.8,138.05,31.20,24.65,36.47,0.91,-25.97,14.77,-60,546,-935,26.1,16.9,-1.0,26.0,1.5,-30.2,5.73,2.38,-28.0,30.2
2012-06-01 02:17:00,0.0,1.8960,0.0008,401.08,0.20,11.6,16.7,138.05,31.20,24.65,36.46,0.92,-25.97,14.95,-60,546,-935,26.1,17.0,-0.9,26.0,1.5,-30.2,5.73,2.37,-28.0,30.2
2012-06-01 02:18:00,0.0,1.8956,0.0009,400.97,0.19,14.4,20.9,138.05,31.19,24.65,36.46,0.92,-25.96,15.13,-60,546,-935,26.1,16.9,-1.0,26.0,1.5,-30.3,5.73,2.38,-28.0,30.2
2012-06-01 02:19:00,0.0,1.8950,0.0010,401.01,0.21,19.1,18.8,138.05,31.19,24.65,36.46,0.95,-25.96,15.30,-60,546,-935,26.1,17.5,-0.5,26.0,1.5,-30.2,5.73,2.38,-28.0,30.2
2012-06-01 02:20:00,0.0,1.8954,0.0007,400.96,0.18,15.6,19.5,138.05,31.19,24.65,36.47,0.94,-25.95,15.47,-60,546,-935,26.0,16.8,-1.1,26.0,1.5,-30.2,5.73,2.38,-28.0,30.2